When you browse on this site, cookies collect data to enhance your experience and personalize the content and advertising you see.
Visit our Privacy Policy to learn more. By continuing to use the site, you agree to this use of cookies and data.
  • In Sweden
  • List of Countries
  • For 7 days
  • Water Temperature
  • Weather Map
  • Weather Widgets
  • user-avatar
    Login

    Hourly Weather Aberdare

    Today, 24 August, Saturday

    Time Temperature Precipitation Wind Pressure Humidity
    00:00 +13°C° 0 mm 1 mps 743 mmHg 84%
    01:00 +12°C° 0 mm 1 mps 743 mmHg 84%
    02:00 +12°C° 0 mm 2 mps 742 mmHg 84%
    03:00 +12°C° 0 mm 2 mps 742 mmHg 83%
    04:00 +12°C° 0 mm 2 mps 742 mmHg 82%
    05:00 +12°C° 0 mm 2 mps 742 mmHg 81%
    06:00 +13°C° 0 mm 2 mps 741 mmHg 80%
    07:00 +15°C° 0 mm 2 mps 742 mmHg 75%
    08:00 +17°C° 0 mm 3 mps 742 mmHg 71%
    09:00 +19°C° 0 mm 3 mps 742 mmHg 67%
    10:00 +20°C° 0 mm 3 mps 742 mmHg 66%
    11:00 +22°C° 0 mm 4 mps 741 mmHg 64%
    12:00 +23°C° 0 mm 4 mps 741 mmHg 63%
    13:00 +23°C° 0 mm 4 mps 741 mmHg 63%
    14:00 +25°C° 0 mm 5 mps 741 mmHg 62%
    15:00 +26°C° 0 mm 5 mps 741 mmHg 62%
    16:00 +23°C° 0 mm 5 mps 740 mmHg 67%
    17:00 +22°C° 0 mm 4 mps 740 mmHg 71%
    18:00 +21°C° 0 mm 3 mps 740 mmHg 75%
    19:00 +20°C° 0 mm 3 mps 740 mmHg 78%
    20:00 +18°C° 0 mm 2 mps 740 mmHg 81%
    21:00 +17°C° 0 mm 2 mps 740 mmHg 84%
    22:00 +16°C° 0 mm 2 mps 740 mmHg 84%
    23:00 +16°C° 0 mm 2 mps 740 mmHg 84%

    Tomorrow, 25 August, Sunday

    Time Temperature Precipitation Wind Pressure Humidity
    00:00 +16°C° 0 mm 1 mps 740 mmHg 84%
    01:00 +16°C° 0 mm 1 mps 740 mmHg 84%
    02:00 +16°C° 0 mm 1 mps 740 mmHg 84%
    03:00 +16°C° 0 mm 1 mps 740 mmHg 83%
    04:00 +16°C° 0 mm 1 mps 739 mmHg 85%
    05:00 +15°C° 0 mm 1 mps 739 mmHg 86%
    06:00 +15°C° 0 mm 1 mps 739 mmHg 87%
    07:00 +18°C° 0 mm 1 mps 740 mmHg 82%
    08:00 +20°C° 0 mm 1 mps 740 mmHg 78%
    09:00 +21°C° 0 mm 1 mps 740 mmHg 74%
    10:00 +22°C° 0 mm 1 mps 741 mmHg 71%
    11:00 +23°C° 0 mm 2 mps 741 mmHg 69%
    12:00 +25°C° 0 mm 2 mps 741 mmHg 66%
    13:00 +25°C° 0 mm 2 mps 741 mmHg 67%
    14:00 +25°C° 0 mm 2 mps 741 mmHg 67%
    15:00 +25°C° 0 mm 2 mps 741 mmHg 68%
    16:00 +24°C° 0 mm 2 mps 741 mmHg 73%
    17:00 +23°C° 0 mm 2 mps 741 mmHg 77%
    18:00 +21°C° 0 mm 2 mps 741 mmHg 82%
    19:00 +20°C° 0 mm 2 mps 741 mmHg 86%
    20:00 +18°C° 0 mm 2 mps 741 mmHg 90%
    21:00 +16°C° 0 mm 1 mps 741 mmHg 94%
    22:00 +16°C° 0 mm 1 mps 741 mmHg 94%
    23:00 +16°C° 0 mm 1 mps 741 mmHg 94%

    Day after tomorrow, 26 August, Monday

    Time Temperature Precipitation Wind Pressure Humidity
    00:00 +15°C° 0 mm 1 mps 741 mmHg 95%
    01:00 +15°C° 0 mm 1 mps 741 mmHg 95%
    02:00 +15°C° 0 mm 1 mps 741 mmHg 95%
    03:00 +15°C° 0 mm 1 mps 740 mmHg 95%
    04:00 +15°C° 0 mm 1 mps 740 mmHg 94%
    05:00 +15°C° 0 mm 1 mps 740 mmHg 94%
    06:00 +15°C° 0 mm 1 mps 740 mmHg 94%
    07:00 +16°C° 0 mm 1 mps 741 mmHg 90%
    08:00 +19°C° 0 mm 1 mps 741 mmHg 86%
    09:00 +19°C° 0 mm 2 mps 741 mmHg 82%
    10:00 +20°C° 0 mm 2 mps 741 mmHg 78%
    11:00 +20°C° 0 mm 2 mps 741 mmHg 75%
    12:00 +21°C° 0 mm 3 mps 741 mmHg 72%
    13:00 +20°C° 0 mm 2 mps 741 mmHg 73%
    14:00 +20°C° 0 mm 2 mps 741 mmHg 74%
    15:00 +19°C° 0 mm 2 mps 740 mmHg 75%
    16:00 +19°C° 0.2 mm 1 mps 740 mmHg 79%
    17:00 +19°C° 0.2 mm 1 mps 740 mmHg 82%
    18:00 +18°C° 0.2 mm 1 mps 740 mmHg 85%
    19:00 +16°C° 0 mm 1 mps 740 mmHg 87%
    20:00 +15°C° 0 mm 1 mps 740 mmHg 89%
    21:00 +13°C° 0 mm 1 mps 740 mmHg 92%
    22:00 +13°C° 0 mm 1 mps 740 mmHg 92%
    23:00 +12°C° 0 mm 1 mps 740 mmHg 92%

    27 August, Tuesday

    Time Temperature Precipitation Wind Pressure Humidity
    00:00 +12°C° 0 mm 1 mps 740 mmHg 93%
    01:00 +12°C° 0 mm 1 mps 740 mmHg 92%
    02:00 +12°C° 0 mm 1 mps 740 mmHg 92%
    03:00 +12°C° 0 mm 1 mps 740 mmHg 91%
    04:00 +13°C° 0 mm 1 mps 740 mmHg 90%
    05:00 +13°C° 0 mm 1 mps 740 mmHg 89%
    06:00 +13°C° 0 mm 1 mps 740 mmHg 89%
    07:00 +15°C° 0 mm 1 mps 740 mmHg 83%
    08:00 +15°C° 0 mm 0 mps 740 mmHg 78%
    09:00 +17°C° 0 mm 0 mps 741 mmHg 73%
    10:00 +18°C° 0 mm 0 mps 741 mmHg 69%
    11:00 +21°C° 0 mm 1 mps 741 mmHg 64%
    12:00 +22°C° 0 mm 1 mps 741 mmHg 60%
    13:00 +22°C° 0 mm 1 mps 740 mmHg 60%
    14:00 +23°C° 0 mm 1 mps 740 mmHg 61%
    15:00 +23°C° 0 mm 2 mps 740 mmHg 61%
    16:00 +21°C° 0 mm 2 mps 740 mmHg 68%
    17:00 +20°C° 0 mm 2 mps 740 mmHg 75%
    18:00 +19°C° 0 mm 2 mps 740 mmHg 81%
    19:00 +19°C° 0 mm 1 mps 740 mmHg 84%
    20:00 +16°C° 0 mm 1 mps 740 mmHg 87%
    21:00 +15°C° 0 mm 1 mps 740 mmHg 90%
    22:00 +15°C° 0 mm 1 mps 740 mmHg 90%
    23:00 +15°C° 0 mm 1 mps 740 mmHg 90%

    28 August, Wednesday

    Time Temperature Precipitation Wind Pressure Humidity
    00:00 +14°C° 0 mm 1 mps 740 mmHg 90%
    01:00 +14°C° 0 mm 1 mps 739 mmHg 89%
    02:00 +14°C° 0 mm 1 mps 739 mmHg 88%
    03:00 +14°C° 0 mm 1 mps 739 mmHg 87%
    04:00 +14°C° 0 mm 1 mps 739 mmHg 85%
    05:00 +14°C° 0 mm 1 mps 739 mmHg 84%
    06:00 +15°C° 0 mm 1 mps 739 mmHg 82%
    07:00 +16°C° 0 mm 1 mps 739 mmHg 81%
    08:00 +16°C° 0 mm 2 mps 739 mmHg 80%
    09:00 +17°C° 0 mm 2 mps 739 mmHg 78%
    10:00 +18°C° 0 mm 2 mps 739 mmHg 77%
    11:00 +18°C° 0 mm 2 mps 739 mmHg 77%
    12:00 +18°C° 0 mm 2 mps 739 mmHg 76%
    13:00 +18°C° 0 mm 2 mps 739 mmHg 75%
    14:00 +19°C° 0 mm 3 mps 739 mmHg 75%
    15:00 +19°C° 0 mm 3 mps 739 mmHg 74%
    16:00 +18°C° 0 mm 3 mps 739 mmHg 79%
    17:00 +17°C° 0 mm 3 mps 739 mmHg 84%
    18:00 +16°C° 0 mm 3 mps 739 mmHg 89%
    19:00 +14°C° 0 mm 3 mps 739 mmHg 91%
    20:00 +14°C° 0 mm 2 mps 739 mmHg 93%
    21:00 +13°C° 0 mm 2 mps 740 mmHg 95%
    22:00 +12°C° 0 mm 2 mps 740 mmHg 95%
    23:00 +10°C° 0 mm 2 mps 740 mmHg 95%

    29 August, Thursday

    Time Temperature Precipitation Wind Pressure Humidity
    00:00 +9°C° 0 mm 2 mps 740 mmHg 95%
    01:00 +9°C° 0 mm 2 mps 740 mmHg 94%
    02:00 +8°C° 0 mm 2 mps 740 mmHg 94%
    03:00 +8°C° 0 mm 2 mps 740 mmHg 94%
    04:00 +9°C° 0 mm 1 mps 740 mmHg 94%
    05:00 +9°C° 0 mm 1 mps 740 mmHg 94%
    06:00 +9°C° 0 mm 1 mps 740 mmHg 93%
    07:00 +10°C° 0 mm 2 mps 740 mmHg 89%
    08:00 +12°C° 0 mm 3 mps 740 mmHg 84%
    09:00 +14°C° 0 mm 3 mps 741 mmHg 79%
    10:00 +15°C° 0 mm 4 mps 741 mmHg 75%
    11:00 +16°C° 0 mm 5 mps 741 mmHg 71%
    12:00 +17°C° 0 mm 5 mps 741 mmHg 67%
    13:00 +17°C° 0 mm 5 mps 740 mmHg 68%
    14:00 +16°C° 0 mm 6 mps 740 mmHg 69%
    15:00 +16°C° 0 mm 6 mps 740 mmHg 70%
    16:00 +16°C° 0 mm 6 mps 740 mmHg 74%
    17:00 +15°C° 0 mm 5 mps 739 mmHg 79%
    18:00 +14°C° 0 mm 5 mps 739 mmHg 84%
    19:00 +13°C° 0 mm 5 mps 739 mmHg 87%
    20:00 +13°C° 0 mm 4 mps 739 mmHg 90%
    21:00 +12°C° 0 mm 4 mps 739 mmHg 93%
    22:00 +12°C° 0.1 mm 4 mps 739 mmHg 93%
    23:00 +12°C° 0.1 mm 4 mps 738 mmHg 94%
    Show more